Погода в Смоленске

Погода в Смоленске : погода сейчас, прогноз погоды и архив. Всё, что Вы хотите узнать о погоде в Смоленске!

Хотите узнать прогноз погоды в Смоленске? Тогда Вам сюда: Погода в Смоленске

Поиск расширенной информации на нашем сайте:

Другие новости

Новости СМИ2

Главная страница сайта

Новости сайта

03.07.2017

Напоминаем, что на нашем специализированном сайте Метеоцентр.Азия вы можете получить высокодетализированные автоматические прогнозы погоды по пунктам России, СНГ и мира в авиационном формате (включающие направление и скорость ветра, видимость, явления погоды, количество и форму облачности, нижнюю и верхнюю границу облачности).

Рекомендуем: белый кот

Погода в Смоленске - сегодня

Время (UTC), дата Ветер
(°,м/с) 
Видим.   Явления Облачность Т
(°С)
Тd
(°С)
f(%) Тe
(°С)
Pmin
(гПа)
dP
(гПа)
Po
(мм)
O2
(г/м3)
Тmin Tmax R s Состояние
почвы
09 11.12.17 250 (З) 4000 м  в посл. час снег [диам. отлож. мокр. снега 9 мм]  10/10 200 м 
[Ns]
-1.8 -2 99 -3  1002.6  2.2  731  297           
12 11.12.17 170 (Ю) 4000 м  дымка{снег}  8/0 средняя, верхняя 
[Ac trans|Ci sp]
-3 -4.1 92 -3  1006.1  732  299           
15 11.12.17 150 (ЮВ) 4000 м  слаб. ливневой снег [диам. отлож. мокр. снега 9 мм]  10/8 300 м кучево-дожд., средняя 
[Cb cap|Ac trans]
-3.7 -4.3 96 -5  1007.4  1.2  733  300         
18 11.12.17 160 (Ю) 4000 м  дымка{ливн. осадки} [диам. отлож. мокр. снега 9 мм]  10/10 600 м кучево-дожд. 
[Cb cap]
-2.8 -3.3 96 -2  1008.6  1.3  734  299    -1.8  0.3     
21 11.12.17 160 (Ю) 4000 м  дымка [диам. отлож. мокр. снега 9 мм]  10/10 600 м кучево-дожд. 
[Cb cap]
-2.4 -2.8 97 -3  1009.6  735  299           
00 12.12.17 130 (ЮВ) 2000 м  слаб. переохл. морось (гололёд) [диам. сложн. отлож. 9 мм]  10/10 100 м 
[St]
-2 -2.3 98 -3  1010.3  0.7  735  299           
03 12.12.17 130 (ЮВ) 2000 м  дымка{морось} [диам. сложн. отлож. 10 мм]  10/10 100 м 
[St]
-1.3 -1.5 99 -3  1009.5  -0.7  735  298  -3.7    0.0     
06 12.12.17 120 (ЮВ) 2000 м  дымка{морось} [диам. сложн. отлож. 10 мм]  10/10 100 м 
[St]
-1.2 -1.4 99 -3  1008.8  -0.6  734  297  -2.8    0.0  23  равномерный
мокрый или
старый снег
100% 
09 12.12.17 130 (ЮВ) 2000 м  дымка [диам. сложн. отлож. 10 мм]  10/10 100 м 
[St]
-0.2 -0.7 96 -2  1008.2  -0.5  734  296           
12 12.12.17 150 (ЮВ) 2000 м  дымка  10/10 100 м 
[St]
+0.4 -0.1 96 -1  1006.8  -1.3  733  295           
15 12.12.17 170 (Ю) 4000 м  дымка  10/10 200 м 
[St]
+0.6 +0.2 97 -2  1006.6  -0.1  733  295           
18 12.12.17 160 (Ю) 2000 м  дымка{морось}  10/10 100 м 
[St]
+0.7 +0.4 98 -1  1006.4  -0.2  733  294    +0.7  0.0     
21 12.12.17 180 (Ю) 4000 м  дымка  10/10 200 м 
[St]
+1.6 +0.8 94 1007.1  0.8  733  294           
00 13.12.17 180 (Ю) 4000 м  дымка  10/10 200 м 
[St]
+1.1 +0.8 98 1007.5  0.3  733  294           
03 13.12.17 180 (Ю) 4000 м  дымка  10/10 200 м 
[St]
+1.9 +1.4 96 +1  1008  0.9  734  293  +0.7    0.0     
06 13.12.17 250 (З) 4000 м  дымка{дождь}  10/10 200 м 
[St]
+2.3 +0.1 85 +2  1010.2  1.9  736  294  +0.7    0.3  17  равномерный
мокрый или
старый снег
100% 
09 13.12.17 260 (З) 10 км    10/10 200 м 
[St]
+2 -1.1 80 +1  1011.4  1.4  737  295           
12 13.12.17 240 (ЮЗ) 10 км    10/10 600 м 
[Sc]
+1.6 -1.5 80 +1  1012.4  0.7  737  295           
15 13.12.17 250 (З) 10 км    10/10 600 м 
[Sc]
+0.5 -1.7 85 1013.6  738  297      0.3     
18 13.12.17 240 (ЮЗ) 10 км    10/10 600 м 
[Sc]
-1.2 -2.3 92 -1  1014.4  0.6  738  299    +2.3       
21 13.12.17 тихо ()   10 км    10/10 600 м 
[Sc]
-4.2 -4.5 98 -4  1014.7  0.1  738  303           
00 14.12.17 тихо ()   н/о    н/о 
-7 -7.7 95 -7  1014.3  -0.7  738  306           
03 14.12.17 тихо ()   10 км    ясно 
-8.7 -9.5 94 -9  1013  -1.4  737  308  -8.9         
06 14.12.17 100 (В) 1000 м  дымка [диам. изморози 4 мм]  10/10 100 м 
[St]
-6.9 -7.5 95 -7  1011.4  -1.4  736  305  -8.9      16  равномерный
мокрый или
старый снег
100% 
09 14.12.17 120 (ЮВ) 1000 м  дымка{туман} [диам. изморози 5 мм]  10/10 100 м 
[St]
-4.7 -5.1 97 -4  1009.9  -1.2  735  302           
Время (UTC), дата Ветер
(°,м/с) 
Видим.   Явления Облачность Т
(°С)
Тd
(°С)
f(%) Тe
(°С)
Pmin
(гПа)
dP
(гПа)
Po
(мм)
O2
(г/м3)
Тmin Tmax R s Состояние
почвы

Для получения пояснительной информации подведите курсор к названию столбца.

ПОГОДА в Смоленске - архив

Всё, что Вы хотите узнать о погоде в Смоленске - удобно и подробно!

Выберите нужную дату (начиная с 1 января 2015* года) и нажмите кнопку "Найти".
Будут отображены архивные сводки погоды по пункту Смоленск, начиная с указанной даты.


Отображать данные в формате CSV (для использования в таблицах Excel)


Внимание! Наш архив погоды предназначен исключительно для личного некоммерческого использования в познавательных целях. Если Вам необходимы официальные справки о состоянии погоды (для производственных, юридических, коммерческих и т.п. целей), обращайтесь в органы Росгидромета.

*Примечание: данная дата относится к архиву по метеостанциям СССР (Россия, СНГ, Балтия).
Архив по метеостанциям Зарубежной Европы и Азии (кроме Китая) хранится 10 дней, по другим регионам земного шара (Китай, Африка, Америка, Австралия, Океания) - 1 день.

Смоленск - район местоположения метеостанции


Название, широта, долгота, высота метеостанции:
Смоленск 54.8°ш. 32.1°д. 239 м над ур. моря [Российская Федерация]

Дополнительная информация

В oтличие oт бoльшинства пoгoдных сайтoв мы публикуем пoдрoбную метеoинфoрмацию в детальнoм прoфессиoнальнoм фoрмате.

Характеристики температуры и влажнoсти вoздуха измеряются на высoте 2 м в тени вдали oт зданий и деревьев.
Скoрoсть ветра измеряется на высoте 10 м (на урoвне рoста челoвека скoрoсть ветра ниже в 1.5-2 раза). Если метеoстанция нахoдится в гoрoде или в лесу, тo скoрoсть ветра занижена на 2-4 м/с пo сравнению с oткрытым местoм. Скoрoсть ветра над акватoриями крупных рек и oзёр, а также на вершинах хoлмoв на 2-5 м/с выше, чем в oбычных услoвиях.
Атмoсфернoе давление в разных тoчках местнoсти мoжет значительнo oтличаться oт давления на метеoстанции, в зависимoсти oт услoвий рельефа (при пoдъёме на 10 м давление пoнижается примернo на 1 мм рт.ст.).